SCP
0 0 -0 -0 -0 -0 -0 -0 -0 -0 -0 -0 -0 -0 -0 -0 -0 -0 -0 0 -0 -0 -0 0 0 0 0 0 0 0 0 0 0 0 0 0 0 0 0 0 0 0 0 0 0
0 0 0 0 0 -0 -0 -0 -0 -0 -0 -0 -0 -0 -0 -0 0 0 0 -0 -0 -0 0 0 0 0 0 0 0 0 0 0 0 0 0 0 0 0 0 0 0 0 0 0 0
0 0 0 0 0 0 0 -0 -0 -0 -0 -0 -0 -0 -0 0 0 0 0 -0 -0 0 0 0 0 0 0 0 0 0 0 0 0 0 0 0 0 0 0 0 0 0 0 0 0
0 0 0 0 0 0 0 0 0 -0 -0 -0 -0 -0 0 0 0 0 0 0 0 0 0 0 0 0 0 0 0 0 0 0 0 0 0 0 0 0 0 0 0 0 0 0 0
0 0 0 0 0 0 0 0 0 0 0 0 0 0 0 0 0 0 0 0 0 0 0 0 0 0 0 0 0 0 0 0 0 0 0 0 0 0 0 0 0 0 0 0 0
0 0 0 0 0 0 0 0 0 0 0 0 0 0 0 0 0 0 0 0 0 0 0 0 0 0 0 0 0 0 0 0 0 0 0 0 0 0 0 0 0 0 0 0 0
0 0 0 0 0 0 0 0 0 0 0 0 0 0 0 0 0 0 0 0 0 0 0 0 0 0 0 0 0 0 0 0 0 0 0 0 0 0 0 0 0 0 0 0 0
0 0 0 0 0 0 0 0 0 0 0 0 0 0 0 0 0 0 0 0 0 0 0 0 0 0 0 0 0 0 0 0 0 0 0 0 0 0 0 0 0 0 0 0 0
0 0 0 0 0 0 0 0 0 0 0 0 0 0 0 0 0 0 0 0 0 0 0 0 0 0 0 0 0 0 0 0 0 0 0 0 0 0 0 0 0 0 0 0 0
0 0 0 0 0 0 0 0 0 0 0 0 0 0 0 0 0 0 0 0 0 0 0 0 0 0 0 0 0 0 0 0 0 0 0 0 0 0 0 0 0 0 0 0 0
0 0 0 0 0 0 0 0 0 0 0 0 0 0 0 0 0 0 0 0 0 0 0 0 0 0 0 0 0 0 0 0 0 0 0 0 0 0 0 0 0 0 0 0 0
0 0 0 0 0 0 0 0 0 0 0 0 0 0 0 0 0 0 0 0 0 0 0 0 0 0 0 0 0 0 0 0 0 0 0 0 0 0 0 0 0 0 0 -0 0
0 0 0 0 0 0 0 0 0 0 0 0 0 0 0 0 0 0 0 0 0 0 0 0 0 0 0 0 0 0 0 0 0 0 0 0 0 0 0 0 0 0 0 0 0
0 0 0 0 0 0 0 0 0 0 0 0 0 0 0 0 0 0 0 0 0 0 0 0 0 0 0 0 0 0 0 0 0 0 0 0 0 0 0 0 0 0 0 0 0
0 0 0 0 0 0 0 0 0 0 0 0 0 0 0 0 0 0 0 0 0 0 0 0 0 0 0 0 0 0 0 0 0 0 0 0 0 0 0 0 0 0 0 0 0
0 0 0 0 0 0 0 0 0 0 0 0 0 0 0 0 0 0 0 0 0 0 0 0 0 0 0 0 0 0 0 0 0 0 0 0 0 0 0 0 0 0 0 0 0
0 0 0 0 0 0 0 0 0 0 0 0 0 0 0 0 0 0 0 0 0 0 0 0 0 0 0 0 0 0 0 0 0 0 0 0 0 0 0 0 0 0 0 0 0
0 0 0 0 0 0 0 0 0 0 0 0 0 0 0 0 0 0 0 0 0 0 0 0 0 0 0 0 0 0 0 0 0 0 0 0 0 0 0 0 0 0 0 0 0
0 0 0 0 0 0 0 0 0 0 0 0 0 0 0 0 0 0 0 0 0 0 0 0 0 0 0 0 0 0 0 0 0 0 0 0 0 0 0 0 0 0 0 0 0
0 0 0 0 0 0 0 0 0 0 0 0 0 0 0 0 0 0 0 0 0 0 0 0 0 0 0 0 0 0 0 0 0 0 0 0 0 0 0 0 0 0 0 0 0
0 0 0 0 0 0 0 0 0 0 0 0 0 0 0 0 0 0 0 0 0 0 0 0 0 0 0 0 0 0 0 0 0 0 0 0 0 0 0 0 0 0 0 0 0
0 0 0 0 0 0 0 0 0 0 0 0 0 0 0 0 0 0 0 0 0 0 0 0 0 0 0 0 0 0 0 0 0 0 0 0 0 0 0 0 0 0 0 0 0
0 0 0 0 0 0 0 0 0 0 0 0 0 0 0 0 0 0 0 0 0 0 0 0 0 0 0 0 0 0 0 0 0 0 0 0 0 0 0 0 0 0 0 0 0
0 0 0 0 0 0 0 0 0 0 0 0 0 0 0 0 0 0 0 0 0 0 0 0 0 0 0 0 0 0 0 0 0 0 0 0 0 0 0 0 0 0 0 0 0
0 0 0 0 0 0 0 0 0 0 0 0 0 0 0 0 0 0 0 0 0 0 0 0 0 0 0 0 0 0 0 0 0 0 0 0 0 0 0 0 0 0 0 0 0
0 0 0 0 0 0 0 0 0 0 0 0 0 0 0 0 0 0 0 0 0 0 0 0 0 0 0 0 0 0 0 0 0 0 0 0 -0 0 0 0 0 0 0 0 0
0 0 0 0 0 0 0 0 0 0 0 0 0 0 0 0 0 0 0 0 0 0 0 0 0 0 0 0 0 -0 0 0 0 0 0 0 0 0 0 0 0 0 0 0 0
Wind_Speed_500mb
11 13 16 16 16 16 16 17 17 17 17 18 14 12 6 4 16 11 13 18 21 19 12 9 12 12 12 13 11 7 8 4 5 5 4 12 9 10 12 6 9 16 23 36 48
11 12 13 15 15 16 15 15 15 16 16 15 12 11 8 5 7 21 18 18 16 16 9 7 11 9 10 8 8 9 7 9 5 5 4 8 5 13 9 16 15 31 36 42 46
11 13 13 14 14 15 15 15 14 15 15 15 12 10 8 5 5 14 15 15 15 13 7 9 12 10 10 9 10 6 6 5 5 1 3 4 5 7 6 6 13 34 52 52 50
14 13 15 14 14 14 14 15 15 15 14 11 10 9 6 8 2 9 13 14 15 17 6 7 9 9 8 7 6 10 5 4 3 3 6 7 7 8 16 6 24 31 36 42 45
16 15 15 17 16 16 16 16 16 15 12 9 8 7 4 5 7 7 10 12 12 11 7 8 8 9 11 11 8 8 5 6 5 5 9 10 6 7 8 31 31 37 41 47 49
18 17 18 18 18 16 17 18 18 17 13 10 8 4 2 4 6 6 7 11 13 14 17 9 11 18 18 9 7 7 6 7 6 8 4 6 4 7 12 38 38 43 48 49 47
23 19 19 21 21 19 18 16 17 15 11 9 6 2 2 8 6 5 6 10 13 14 18 20 14 3 11 9 10 9 6 3 5 9 1 4 3 6 25 33 41 47 49 49 45
26 22 20 20 25 21 19 18 18 15 11 8 4 1 4 10 6 4 5 7 11 14 14 20 20 17 8 21 9 7 8 3 3 13 5 5 5 5 23 35 47 46 50 54 50
25 25 21 18 22 22 20 20 18 16 13 9 4 2 2 9 5 3 5 4 9 12 14 12 11 11 7 8 7 11 3 4 11 5 5 8 6 2 24 34 38 39 40 44 51
21 23 24 18 19 21 20 19 18 15 9 4 3 6 8 6 4 2 3 6 5 13 10 4 8 7 6 7 5 5 4 2 6 4 4 5 8 2 17 23 27 33 31 34 43
19 14 20 23 21 21 18 14 7 4 6 5 4 4 10 8 5 3 2 8 9 7 6 7 10 5 8 5 9 10 5 5 6 4 5 6 6 5 11 18 23 32 41 42 46
23 18 15 20 22 19 15 9 8 7 10 12 12 9 9 8 5 7 4 5 5 6 4 9 5 7 10 9 8 4 4 6 8 5 3 5 12 7 1 6 12 20 28 38 53
32 22 15 15 19 17 12 10 8 10 5 3 7 7 6 11 5 8 5 8 7 6 5 8 7 11 6 5 6 5 7 5 7 8 2 13 7 4 6 15 14 16 27 35 45
40 33 21 10 13 15 9 7 7 7 8 4 3 2 7 8 2 7 7 5 4 8 9 6 3 7 3 3 8 2 8 6 4 6 4 8 8 9 7 13 9 15 25 35 42
44 38 27 19 8 5 6 9 5 4 6 4 5 8 9 6 13 4 6 4 10 9 8 5 11 6 4 4 7 4 8 6 1 2 5 9 2 12 5 10 10 12 21 29 36
51 44 36 25 24 9 6 6 2 9 13 5 7 7 7 2 3 8 4 5 8 7 7 5 1 4 6 5 2 6 6 5 5 2 2 7 7 10 8 11 7 8 14 23 33
58 50 41 31 32 24 15 6 8 7 6 7 8 8 7 8 4 5 7 5 9 9 4 2 3 1 4 5 1 3 6 6 9 6 7 6 3 17 10 11 10 8 9 17 25
65 56 45 35 33 35 28 6 6 7 10 4 7 6 11 12 5 6 7 6 8 6 6 10 5 10 5 3 8 3 6 8 8 4 8 3 10 9 10 10 12 8 5 11 19
72 62 54 47 47 45 34 4 15 15 11 20 6 7 6 6 8 7 12 10 14 17 14 9 4 3 5 3 3 5 4 4 10 3 3 6 12 10 5 8 13 13 7 5 12
86 71 64 56 58 51 10 22 15 11 12 5 17 7 15 9 11 11 13 8 10 13 3 11 8 1 3 4 6 4 9 6 5 2 8 8 9 9 11 19 15 17 18 8 3
92 41 55 63 57 42 11 16 14 18 18 15 13 11 9 14 15 10 11 4 7 9 5 6 4 1 4 10 12 4 3 5 5 6 7 5 10 12 13 17 24 29 27 16 8
65 10 82 87 16 14 12 16 12 11 21 2 8 5 16 17 13 8 16 7 26 28 15 10 7 7 6 1 1 4 10 10 7 8 5 2 13 2 12 15 32 35 33 24 16
44 17 91 83 17 12 5 5 9 9 11 15 16 10 6 15 7 14 10 4 29 16 15 13 3 5 12 7 4 9 10 7 8 5 12 8 11 4 6 9 26 33 37 31 23
35 9 26 38 24 22 18 10 18 25 10 13 11 12 7 7 5 11 7 2 11 12 8 15 4 9 12 7 9 10 10 12 11 6 8 16 8 10 13 15 23 36 40 37 30
41 15 32 19 32 6 30 28 29 21 9 21 5 13 18 11 8 11 7 5 5 10 7 7 9 4 6 6 3 6 10 20 31 14 17 5 22 21 20 24 48 50 43 41 39
37 18 35 12 48 27 31 24 44 26 20 15 13 28 13 13 15 17 15 9 11 9 13 5 4 4 7 3 4 12 21 24 30 31 34 31 53 24 38 30 35 46 53 52 48
45 58 40 32 34 34 38 33 43 33 26 19 29 18 18 9 6 3 11 21 18 20 15 14 12 6 9 6 8 19 27 43 18 15 38 25 28 9 9 24 49 56 63 66 58
Wind_Direction_500mb
359 3 1 7 5 14 17 14 9 10 4 5 10 19 46 75 41 46 48 37 29 28 39 77 97 103 98 79 75 94 69 143 161 156 291 348 8 354 350 6 68 26 4 335 333
340 348 356 358 2 3 10 12 11 9 2 3 8 14 26 37 66 40 35 24 21 26 47 117 120 119 69 60 37 69 98 183 134 140 234 309 354 330 356 15 350 338 341 336 330
321 333 340 349 352 358 359 4 7 5 4 360 3 10 24 40 89 24 24 17 13 20 62 126 135 112 77 57 28 50 122 148 175 123 282 343 53 20 12 26 344 323 330 333 333
302 317 323 331 340 343 348 352 355 356 359 6 3 5 20 21 145 18 20 16 15 14 30 115 146 104 84 86 56 89 81 100 123 11 41 10 328 101 67 345 330 329 335 335 340
285 298 308 318 328 336 338 341 343 346 352 3 11 15 34 79 85 39 27 24 23 28 49 114 133 118 114 104 89 85 165 101 80 44 56 5 22 191 47 354 347 346 347 343 343
275 287 298 305 314 326 334 338 340 342 347 355 4 18 111 111 103 39 29 31 34 47 54 84 99 105 96 81 80 117 134 130 58 29 90 25 69 157 351 348 354 354 349 348 345
272 278 294 303 305 316 325 330 332 334 338 336 340 17 99 133 121 51 49 48 50 59 76 90 98 95 106 96 101 98 94 350 38 4 113 25 54 32 349 356 356 353 351 349 349
268 275 287 299 298 306 314 321 326 324 322 316 322 4 142 149 136 67 53 67 69 67 103 92 91 78 65 118 54 61 59 42 345 7 9 22 285 360 4 359 356 355 353 347 342
270 278 284 299 290 297 307 315 319 315 312 306 282 194 141 170 164 100 69 88 104 91 98 94 80 83 89 81 46 20 126 7 325 77 327 47 277 132 13 4 360 358 349 347 347
284 280 282 282 285 291 301 308 310 300 292 298 200 131 174 180 163 132 85 100 118 128 91 81 73 76 43 74 198 203 104 253 247 305 345 269 265 161 14 5 360 354 340 344 343
282 294 284 282 279 288 296 316 326 292 281 243 190 163 154 181 197 177 144 128 118 99 80 24 74 131 158 107 126 125 137 202 252 257 310 229 288 334 12 2 351 353 4 358 354
265 285 293 283 277 284 299 317 308 297 302 250 232 221 193 184 184 172 179 175 121 110 103 32 130 183 125 125 108 105 115 283 293 287 222 325 292 200 207 286 302 327 354 1 4
244 258 279 277 273 276 281 295 302 315 267 255 194 179 189 189 181 159 167 138 105 104 93 138 177 144 126 142 132 172 152 234 243 320 264 324 326 298 259 274 286 342 344 352 1
241 243 247 256 269 263 265 271 283 315 51 193 179 172 156 161 121 149 147 148 64 145 130 124 149 155 135 186 149 241 185 187 296 30 290 20 287 289 257 284 269 321 346 359 1
237 234 236 202 194 202 247 222 249 329 347 68 140 143 149 171 140 159 143 126 147 145 125 163 160 161 172 226 186 170 152 184 233 150 310 336 84 268 333 278 277 312 344 356 359
231 226 225 208 194 199 222 200 179 45 249 141 131 152 122 132 155 136 132 106 106 94 42 137 177 179 184 95 200 147 123 54 61 97 348 248 113 278 198 210 257 280 344 1 2
225 219 217 208 189 174 190 192 41 167 347 206 179 167 164 160 171 164 156 164 164 111 178 43 218 217 153 112 313 114 71 338 352 9 227 182 85 247 230 224 219 257 339 4 7
218 211 201 200 181 167 165 40 153 245 216 120 118 109 181 160 194 148 134 213 231 115 130 162 284 175 165 211 183 162 167 155 228 269 291 155 237 251 209 200 220 234 314 360 2
203 197 195 190 185 171 142 149 210 197 166 151 85 146 264 210 159 148 200 216 200 180 168 147 183 106 81 145 129 166 188 156 109 48 4 217 278 279 158 211 213 228 250 323 358
194 186 193 185 181 164 103 230 217 199 137 163 178 149 182 202 162 182 189 207 193 194 183 205 116 81 133 95 47 179 155 73 11 40 296 279 272 242 214 225 217 219 220 234 332
190 168 186 177 172 147 193 225 217 213 170 169 191 137 185 179 181 197 205 239 169 150 126 143 83 140 109 203 183 147 206 69 119 151 193 292 263 214 218 204 200 207 202 200 208
177 152 167 168 145 190 195 192 204 179 196 151 120 127 176 171 169 223 216 240 172 151 163 198 137 163 188 237 291 226 208 169 141 216 227 155 270 237 236 216 197 194 195 191 193
174 130 169 171 197 198 169 222 200 154 184 173 195 199 179 169 193 194 189 337 169 158 161 181 266 63 351 358 351 225 197 164 113 104 204 151 263 155 260 208 200 194 193 193 192
153 131 176 212 232 183 164 178 204 198 216 172 162 131 124 174 269 168 147 75 187 180 189 141 150 181 188 166 135 204 193 182 157 162 192 225 254 217 221 218 216 209 202 196 196
180 180 180 194 218 191 175 174 192 194 207 185 215 193 173 159 147 172 135 113 57 181 129 144 201 158 260 250 229 237 204 192 209 199 194 234 221 224 209 208 215 214 204 200 202
178 158 169 160 183 183 191 207 197 186 150 206 192 193 196 163 197 178 140 183 185 175 160 172 170 96 301 358 258 259 235 233 223 231 252 263 278 209 226 221 220 217 208 208 209
231 208 180 175 176 178 208 189 196 178 207 190 180 164 190 175 123 68 138 166 173 157 164 153 140 119 260 342 336 291 222 210 199 208 218 218 238 135 174 198 222 220 213 215 211
Wind_Speed_850mb
11 13 16 16 16 16 16 17 17 17 17 18 14 12 6 4 16 11 13 18 21 19 12 9 12 12 12 13 11 7 8 4 5 5 4 12 9 10 12 6 9 16 23 36 48
11 12 13 15 15 16 15 15 15 16 16 15 12 11 8 5 7 21 18 18 16 16 9 7 11 9 10 8 8 9 7 9 5 5 4 8 5 13 9 16 15 31 36 42 46
11 13 13 14 14 15 15 15 14 15 15 15 12 10 8 5 5 14 15 15 15 13 7 9 12 10 10 9 10 6 6 5 5 1 3 4 5 7 6 6 13 34 52 52 50
14 13 15 14 14 14 14 15 15 15 14 11 10 9 6 8 2 9 13 14 15 17 6 7 9 9 8 7 6 10 5 4 3 3 6 7 7 8 16 6 24 31 36 42 45
16 15 15 17 16 16 16 16 16 15 12 9 8 7 4 5 7 7 10 12 12 11 7 8 8 9 11 11 8 8 5 6 5 5 9 10 6 7 8 31 31 37 41 47 49
18 17 18 18 18 16 17 18 18 17 13 10 8 4 2 4 6 6 7 11 13 14 17 9 11 18 18 9 7 7 6 7 6 8 4 6 4 7 12 38 38 43 48 49 47
23 19 19 21 21 19 18 16 17 15 11 9 6 2 2 8 6 5 6 10 13 14 18 20 14 3 11 9 10 9 6 3 5 9 1 4 3 6 25 33 41 47 49 49 45
26 22 20 20 25 21 19 18 18 15 11 8 4 1 4 10 6 4 5 7 11 14 14 20 20 17 8 21 9 7 8 3 3 13 5 5 5 5 23 35 47 46 50 54 50
25 25 21 18 22 22 20 20 18 16 13 9 4 2 2 9 5 3 5 4 9 12 14 12 11 11 7 8 7 11 3 4 11 5 5 8 6 2 24 34 38 39 40 44 51
21 23 24 18 19 21 20 19 18 15 9 4 3 6 8 6 4 2 3 6 5 13 10 4 8 7 6 7 5 5 4 2 6 4 4 5 8 2 17 23 27 33 31 34 43
19 14 20 23 21 21 18 14 7 4 6 5 4 4 10 8 5 3 2 8 9 7 6 7 10 5 8 5 9 10 5 5 6 4 5 6 6 5 11 18 23 32 41 42 46
23 18 15 20 22 19 15 9 8 7 10 12 12 9 9 8 5 7 4 5 5 6 4 9 5 7 10 9 8 4 4 6 8 5 3 5 12 7 1 6 12 20 28 38 53
32 22 15 15 19 17 12 10 8 10 5 3 7 7 6 11 5 8 5 8 7 6 5 8 7 11 6 5 6 5 7 5 7 8 2 13 7 4 6 15 14 16 27 35 45
40 33 21 10 13 15 9 7 7 7 8 4 3 2 7 8 2 7 7 5 4 8 9 6 3 7 3 3 8 2 8 6 4 6 4 8 8 9 7 13 9 15 25 35 42
44 38 27 19 8 5 6 9 5 4 6 4 5 8 9 6 13 4 6 4 10 9 8 5 11 6 4 4 7 4 8 6 1 2 5 9 2 12 5 10 10 12 21 29 36
51 44 36 25 24 9 6 6 2 9 13 5 7 7 7 2 3 8 4 5 8 7 7 5 1 4 6 5 2 6 6 5 5 2 2 7 7 10 8 11 7 8 14 23 33
58 50 41 31 32 24 15 6 8 7 6 7 8 8 7 8 4 5 7 5 9 9 4 2 3 1 4 5 1 3 6 6 9 6 7 6 3 17 10 11 10 8 9 17 25
65 56 45 35 33 35 28 6 6 7 10 4 7 6 11 12 5 6 7 6 8 6 6 10 5 10 5 3 8 3 6 8 8 4 8 3 10 9 10 10 12 8 5 11 19
72 62 54 47 47 45 34 4 15 15 11 20 6 7 6 6 8 7 12 10 14 17 14 9 4 3 5 3 3 5 4 4 10 3 3 6 12 10 5 8 13 13 7 5 12
86 71 64 56 58 51 10 22 15 11 12 5 17 7 15 9 11 11 13 8 10 13 3 11 8 1 3 4 6 4 9 6 5 2 8 8 9 9 11 19 15 17 18 8 3
92 41 55 63 57 42 11 16 14 18 18 15 13 11 9 14 15 10 11 4 7 9 5 6 4 1 4 10 12 4 3 5 5 6 7 5 10 12 13 17 24 29 27 16 8
65 10 82 87 16 14 12 16 12 11 21 2 8 5 16 17 13 8 16 7 26 28 15 10 7 7 6 1 1 4 10 10 7 8 5 2 13 2 12 15 32 35 33 24 16
44 17 91 83 17 12 5 5 9 9 11 15 16 10 6 15 7 14 10 4 29 16 15 13 3 5 12 7 4 9 10 7 8 5 12 8 11 4 6 9 26 33 37 31 23
35 9 26 38 24 22 18 10 18 25 10 13 11 12 7 7 5 11 7 2 11 12 8 15 4 9 12 7 9 10 10 12 11 6 8 16 8 10 13 15 23 36 40 37 30
41 15 32 19 32 6 30 28 29 21 9 21 5 13 18 11 8 11 7 5 5 10 7 7 9 4 6 6 3 6 10 20 31 14 17 5 22 21 20 24 48 50 43 41 39
37 18 35 12 48 27 31 24 44 26 20 15 13 28 13 13 15 17 15 9 11 9 13 5 4 4 7 3 4 12 21 24 30 31 34 31 53 24 38 30 35 46 53 52 48
45 58 40 32 34 34 38 33 43 33 26 19 29 18 18 9 6 3 11 21 18 20 15 14 12 6 9 6 8 19 27 43 18 15 38 25 28 9 9 24 49 56 63 66 58
Wind_Direction_850mb
359 3 1 7 5 14 17 14 9 10 4 5 10 19 46 75 41 46 48 37 29 28 39 77 97 103 98 79 75 94 69 143 161 156 291 348 8 354 350 6 68 26 4 335 333
340 348 356 358 2 3 10 12 11 9 2 3 8 14 26 37 66 40 35 24 21 26 47 117 120 119 69 60 37 69 98 183 134 140 234 309 354 330 356 15 350 338 341 336 330
321 333 340 349 352 358 359 4 7 5 4 360 3 10 24 40 89 24 24 17 13 20 62 126 135 112 77 57 28 50 122 148 175 123 282 343 53 20 12 26 344 323 330 333 333
302 317 323 331 340 343 348 352 355 356 359 6 3 5 20 21 145 18 20 16 15 14 30 115 146 104 84 86 56 89 81 100 123 11 41 10 328 101 67 345 330 329 335 335 340
285 298 308 318 328 336 338 341 343 346 352 3 11 15 34 79 85 39 27 24 23 28 49 114 133 118 114 104 89 85 165 101 80 44 56 5 22 191 47 354 347 346 347 343 343
275 287 298 305 314 326 334 338 340 342 347 355 4 18 111 111 103 39 29 31 34 47 54 84 99 105 96 81 80 117 134 130 58 29 90 25 69 157 351 348 354 354 349 348 345
272 278 294 303 305 316 325 330 332 334 338 336 340 17 99 133 121 51 49 48 50 59 76 90 98 95 106 96 101 98 94 350 38 4 113 25 54 32 349 356 356 353 351 349 349
268 275 287 299 298 306 314 321 326 324 322 316 322 4 142 149 136 67 53 67 69 67 103 92 91 78 65 118 54 61 59 42 345 7 9 22 285 360 4 359 356 355 353 347 342
270 278 284 299 290 297 307 315 319 315 312 306 282 194 141 170 164 100 69 88 104 91 98 94 80 83 89 81 46 20 126 7 325 77 327 47 277 132 13 4 360 358 349 347 347
284 280 282 282 285 291 301 308 310 300 292 298 200 131 174 180 163 132 85 100 118 128 91 81 73 76 43 74 198 203 104 253 247 305 345 269 265 161 14 5 360 354 340 344 343
282 294 284 282 279 288 296 316 326 292 281 243 190 163 154 181 197 177 144 128 118 99 80 24 74 131 158 107 126 125 137 202 252 257 310 229 288 334 12 2 351 353 4 358 354
265 285 293 283 277 284 299 317 308 297 302 250 232 221 193 184 184 172 179 175 121 110 103 32 130 183 125 125 108 105 115 283 293 287 222 325 292 200 207 286 302 327 354 1 4
244 258 279 277 273 276 281 295 302 315 267 255 194 179 189 189 181 159 167 138 105 104 93 138 177 144 126 142 132 172 152 234 243 320 264 324 326 298 259 274 286 342 344 352 1
241 243 247 256 269 263 265 271 283 315 51 193 179 172 156 161 121 149 147 148 64 145 130 124 149 155 135 186 149 241 185 187 296 30 290 20 287 289 257 284 269 321 346 359 1
237 234 236 202 194 202 247 222 249 329 347 68 140 143 149 171 140 159 143 126 147 145 125 163 160 161 172 226 186 170 152 184 233 150 310 336 84 268 333 278 277 312 344 356 359
231 226 225 208 194 199 222 200 179 45 249 141 131 152 122 132 155 136 132 106 106 94 42 137 177 179 184 95 200 147 123 54 61 97 348 248 113 278 198 210 257 280 344 1 2
225 219 217 208 189 174 190 192 41 167 347 206 179 167 164 160 171 164 156 164 164 111 178 43 218 217 153 112 313 114 71 338 352 9 227 182 85 247 230 224 219 257 339 4 7
218 211 201 200 181 167 165 40 153 245 216 120 118 109 181 160 194 148 134 213 231 115 130 162 284 175 165 211 183 162 167 155 228 269 291 155 237 251 209 200 220 234 314 360 2
203 197 195 190 185 171 142 149 210 197 166 151 85 146 264 210 159 148 200 216 200 180 168 147 183 106 81 145 129 166 188 156 109 48 4 217 278 279 158 211 213 228 250 323 358
194 186 193 185 181 164 103 230 217 199 137 163 178 149 182 202 162 182 189 207 193 194 183 205 116 81 133 95 47 179 155 73 11 40 296 279 272 242 214 225 217 219 220 234 332
190 168 186 177 172 147 193 225 217 213 170 169 191 137 185 179 181 197 205 239 169 150 126 143 83 140 109 203 183 147 206 69 119 151 193 292 263 214 218 204 200 207 202 200 208
177 152 167 168 145 190 195 192 204 179 196 151 120 127 176 171 169 223 216 240 172 151 163 198 137 163 188 237 291 226 208 169 141 216 227 155 270 237 236 216 197 194 195 191 193
174 130 169 171 197 198 169 222 200 154 184 173 195 199 179 169 193 194 189 337 169 158 161 181 266 63 351 358 351 225 197 164 113 104 204 151 263 155 260 208 200 194 193 193 192
153 131 176 212 232 183 164 178 204 198 216 172 162 131 124 174 269 168 147 75 187 180 189 141 150 181 188 166 135 204 193 182 157 162 192 225 254 217 221 218 216 209 202 196 196
180 180 180 194 218 191 175 174 192 194 207 185 215 193 173 159 147 172 135 113 57 181 129 144 201 158 260 250 229 237 204 192 209 199 194 234 221 224 209 208 215 214 204 200 202
178 158 169 160 183 183 191 207 197 186 150 206 192 193 196 163 197 178 140 183 185 175 160 172 170 96 301 358 258 259 235 233 223 231 252 263 278 209 226 221 220 217 208 208 209
231 208 180 175 176 178 208 189 196 178 207 190 180 164 190 175 123 68 138 166 173 157 164 153 140 119 260 342 336 291 222 210 199 208 218 218 238 135 174 198 222 220 213 215 211